User: anonymous   Login
Location: Melbourne
(37.8170°S, 144.9670°E)
Time: 08:31:46
(UTC+10:00)
Language:

Explorer 11/Cluster Stage 4 - Orbit

View from above orbital plane
View from above orbital plane
View from above satellite
View from above satellite

Ground track
Ground track

The orbit data is extracted from the following two-line orbital elements,

1 00107U 61013A   16146.46947693  .00001164  00000-0  13608-3 0  9998
2 00107  28.7905 276.8914 0551086 213.6608 142.7770 14.07866169756373
Epoch (UTC): 25 May 2016 11:16:02
Eccentricity: 0.0551086
inclination: 28.7905°
perigee height: 467 km
apogee height: 1266 km
right ascension of ascending node: 276.8914°
argument of perigee: 213.6608°
revolutions per day: 14.07866169
mean anomaly at epoch: 142.7770°
orbit number at epoch: 75637

The dashed part of the orbit path shows where the satellite is in the earth's shadow,  

DLR